Location: Astronomy Club of Akron Observatory
(40.9700°N, 81.5606°W)
Time: 12:47:44
(UTC-04:00)

Cosmos 1441 Rocket - Visible Passes

Search period start: 30 June 2015 00:00
Search period end: 10 July 2015 00:00
Orbit: 503 x 549 km, 81.1° (Epoch: 29 June)

Date Brightness Start Highest point End Pass type
(mag) Time Alt. Az. Time Alt. Az. Time Alt. Az.
30 Jun 5.9 00:41:34 12° ENE 00:41:34 12° ENE 00:42:20 10° ENE visible
30 Jun 4.2 02:16:47 42° NW 02:16:47 42° NW 02:20:07 10° N visible
01 Jul 5.9 00:29:52 11° ENE 00:29:52 11° ENE 00:30:11 10° ENE visible
01 Jul 4.2 02:05:05 44° NW 02:05:05 44° NW 02:08:22 10° N visible
02 Jul 4.1 01:53:23 47° NW 01:53:23 47° NW 01:56:36 10° N visible
03 Jul 4.1 01:41:39 49° NNW 01:41:39 49° NNW 01:44:50 10° N visible
04 Jul 4.1 01:29:55 50° NNW 01:29:55 50° NNW 01:33:04 10° N visible
05 Jul 4.0 01:18:09 52° NNW 01:18:09 52° NNW 01:21:18 10° N visible
06 Jul 4.0 01:06:23 53° N 01:06:23 53° N 01:09:30 10° N visible
07 Jul 4.0 00:54:36 53° N 00:54:36 53° N 00:57:43 10° N visible
08 Jul 3.9 00:42:47 54° NNE 00:42:47 54° NNE 00:45:55 10° N visible
09 Jul 3.9 00:30:58 54° NNE 00:30:58 54° NNE 00:34:07 10° NNE visible
